When you browse on this site, cookies collect data to enhance your experience and personalize the content and advertising you see.
Visit our Privacy Policy to learn more. By continuing to use the site, you agree to this use of cookies and data.
  • In Sweden
  • List of Countries
  • For 7 days
  • Water Temperature
  • Weather Map
  • Weather Widgets
  • user-avatar
    Login

    Hourly Weather Rio Branco

    Today, 24 August, Saturday

    Time Temperature Precipitation Wind Pressure Humidity
    00:00 +25°C° 0 mm 0 mps 746 mmHg 47%
    01:00 +25°C° 0 mm 0 mps 746 mmHg 48%
    02:00 +24°C° 0 mm 0 mps 746 mmHg 49%
    03:00 +26°C° 0 mm 1 mps 746 mmHg 49%
    04:00 +25°C° 0 mm 1 mps 746 mmHg 50%
    05:00 +24°C° 0 mm 0 mps 747 mmHg 49%
    06:00 +25°C° 0 mm 0 mps 747 mmHg 47%
    07:00 +26°C° 0 mm 0 mps 747 mmHg 46%
    08:00 +31°C° 0 mm 1 mps 748 mmHg 39%
    09:00 +35°C° 0 mm 1 mps 748 mmHg 32%
    10:00 +39°C° 0 mm 2 mps 748 mmHg 25%
    11:00 +40°C° 0 mm 1 mps 747 mmHg 23%
    12:00 +42°C° 0 mm 1 mps 746 mmHg 21%
    13:00 +44°C° 0 mm 1 mps 745 mmHg 19%
    14:00 +42°C° 0 mm 1 mps 744 mmHg 21%
    15:00 +40°C° 0 mm 1 mps 744 mmHg 24%
    16:00 +36°C° 0 mm 0 mps 743 mmHg 26%
    17:00 +34°C° 0 mm 0 mps 743 mmHg 29%
    18:00 +32°C° 0 mm 0 mps 744 mmHg 32%
    19:00 +30°C° 0 mm 0 mps 744 mmHg 35%
    20:00 +29°C° 0 mm 0 mps 744 mmHg 38%
    21:00 +28°C° 0 mm 0 mps 745 mmHg 40%
    22:00 +27°C° 0 mm 0 mps 745 mmHg 43%
    23:00 +27°C° 0 mm 0 mps 745 mmHg 44%

    Tomorrow, 25 August, Sunday

    Time Temperature Precipitation Wind Pressure Humidity
    00:00 +26°C° 0 mm 0 mps 745 mmHg 46%
    01:00 +26°C° 0 mm 0 mps 744 mmHg 48%
    02:00 +25°C° 0 mm 0 mps 745 mmHg 49%
    03:00 +25°C° 0 mm 0 mps 745 mmHg 50%
    04:00 +27°C° 0 mm 1 mps 745 mmHg 51%
    05:00 +25°C° 0 mm 0 mps 746 mmHg 50%
    06:00 +26°C° 0 mm 0 mps 746 mmHg 49%
    07:00 +27°C° 0 mm 0 mps 747 mmHg 48%
    08:00 +32°C° 0 mm 1 mps 747 mmHg 41%
    09:00 +36°C° 0 mm 1 mps 747 mmHg 34%
    10:00 +40°C° 0 mm 1 mps 747 mmHg 27%
    11:00 +41°C° 0 mm 1 mps 746 mmHg 25%
    12:00 +42°C° 0 mm 2 mps 746 mmHg 23%
    13:00 +43°C° 0 mm 2 mps 745 mmHg 21%
    14:00 +41°C° 0 mm 1 mps 744 mmHg 23%
    15:00 +40°C° 0 mm 1 mps 743 mmHg 25%
    16:00 +39°C° 0 mm 1 mps 743 mmHg 27%
    17:00 +36°C° 0 mm 1 mps 743 mmHg 31%
    18:00 +32°C° 0 mm 0 mps 743 mmHg 35%
    19:00 +29°C° 0 mm 0 mps 743 mmHg 39%
    20:00 +29°C° 0 mm 0 mps 744 mmHg 40%
    21:00 +28°C° 0 mm 0 mps 744 mmHg 41%
    22:00 +28°C° 0 mm 0 mps 744 mmHg 43%
    23:00 +27°C° 0 mm 0 mps 744 mmHg 44%

    Day after tomorrow, 26 August, Monday

    Time Temperature Precipitation Wind Pressure Humidity
    00:00 +27°C° 0 mm 0 mps 744 mmHg 46%
    01:00 +28°C° 0 mm 1 mps 744 mmHg 47%
    02:00 +28°C° 0 mm 1 mps 744 mmHg 49%
    03:00 +27°C° 0 mm 1 mps 745 mmHg 50%
    04:00 +27°C° 0 mm 1 mps 745 mmHg 52%
    05:00 +28°C° 0 mm 1 mps 745 mmHg 52%
    06:00 +28°C° 0 mm 1 mps 746 mmHg 52%
    07:00 +29°C° 0 mm 1 mps 747 mmHg 51%
    08:00 +31°C° 0 mm 1 mps 747 mmHg 47%
    09:00 +33°C° 0 mm 1 mps 747 mmHg 43%
    10:00 +36°C° 0 mm 1 mps 747 mmHg 39%
    11:00 +37°C° 0 mm 1 mps 746 mmHg 34%
    12:00 +40°C° 0 mm 1 mps 745 mmHg 30%
    13:00 +42°C° 0 mm 1 mps 745 mmHg 26%
    14:00 +41°C° 0 mm 1 mps 744 mmHg 27%
    15:00 +40°C° 0 mm 1 mps 743 mmHg 28%
    16:00 +39°C° 0 mm 1 mps 743 mmHg 29%
    17:00 +36°C° 0.1 mm 1 mps 743 mmHg 36%
    18:00 +33°C° 0.1 mm 1 mps 743 mmHg 43%
    19:00 +31°C° 0.1 mm 1 mps 744 mmHg 50%
    20:00 +30°C° 0 mm 1 mps 744 mmHg 52%
    21:00 +30°C° 0 mm 1 mps 745 mmHg 54%
    22:00 +29°C° 0 mm 1 mps 745 mmHg 55%
    23:00 +29°C° 0 mm 1 mps 745 mmHg 57%

    27 August, Tuesday

    Time Temperature Precipitation Wind Pressure Humidity
    00:00 +28°C° 0 mm 1 mps 745 mmHg 60%
    01:00 +27°C° 0 mm 1 mps 745 mmHg 62%
    02:00 +27°C° 0 mm 1 mps 745 mmHg 65%
    03:00 +25°C° 0 mm 0 mps 745 mmHg 68%
    04:00 +24°C° 0 mm 0 mps 745 mmHg 71%
    05:00 +25°C° 0 mm 0 mps 746 mmHg 69%
    06:00 +26°C° 0 mm 0 mps 746 mmHg 67%
    07:00 +26°C° 0 mm 0 mps 747 mmHg 66%
    08:00 +29°C° 0 mm 0 mps 747 mmHg 57%
    09:00 +32°C° 0 mm 0 mps 747 mmHg 48%
    10:00 +35°C° 0 mm 0 mps 748 mmHg 39%
    11:00 +35°C° 0 mm 0 mps 747 mmHg 37%
    12:00 +36°C° 0 mm 0 mps 746 mmHg 36%
    13:00 +36°C° 0 mm 0 mps 745 mmHg 34%
    14:00 +36°C° 0 mm 0 mps 744 mmHg 33%
    15:00 +39°C° 0 mm 1 mps 744 mmHg 31%
    16:00 +39°C° 0 mm 1 mps 743 mmHg 29%
    17:00 +36°C° 0 mm 1 mps 743 mmHg 36%
    18:00 +33°C° 0 mm 1 mps 744 mmHg 43%
    19:00 +31°C° 0 mm 1 mps 744 mmHg 50%
    20:00 +30°C° 0 mm 1 mps 745 mmHg 51%
    21:00 +28°C° 0 mm 0 mps 745 mmHg 53%
    22:00 +27°C° 0 mm 0 mps 745 mmHg 54%
    23:00 +26°C° 0.1 mm 0 mps 745 mmHg 58%

    28 August, Wednesday

    Time Temperature Precipitation Wind Pressure Humidity
    00:00 +26°C° 0.1 mm 0 mps 745 mmHg 62%
    01:00 +25°C° 0.1 mm 0 mps 745 mmHg 66%
    02:00 +25°C° 0 mm 0 mps 745 mmHg 67%
    03:00 +27°C° 0 mm 1 mps 745 mmHg 68%
    04:00 +26°C° 0 mm 1 mps 745 mmHg 70%
    05:00 +27°C° 0 mm 1 mps 746 mmHg 68%
    06:00 +28°C° 0 mm 1 mps 746 mmHg 67%
    07:00 +26°C° 0 mm 0 mps 747 mmHg 65%
    08:00 +31°C° 0 mm 1 mps 747 mmHg 56%
    09:00 +34°C° 0 mm 1 mps 747 mmHg 47%
    10:00 +37°C° 0 mm 1 mps 748 mmHg 37%
    11:00 +40°C° 0 mm 1 mps 747 mmHg 32%
    12:00 +42°C° 0 mm 1 mps 745 mmHg 28%
    13:00 +44°C° 0 mm 1 mps 744 mmHg 23%
    14:00 +42°C° 0 mm 1 mps 744 mmHg 26%
    15:00 +40°C° 0 mm 2 mps 743 mmHg 29%
    16:00 +38°C° 0 mm 3 mps 743 mmHg 33%
    17:00 +36°C° 0 mm 2 mps 743 mmHg 38%
    18:00 +34°C° 0 mm 2 mps 743 mmHg 42%
    19:00 +31°C° 0 mm 1 mps 744 mmHg 47%
    20:00 +31°C° 0 mm 1 mps 744 mmHg 49%
    21:00 +31°C° 0 mm 1 mps 745 mmHg 50%
    22:00 +30°C° 0 mm 1 mps 745 mmHg 51%
    23:00 +30°C° 0 mm 1 mps 745 mmHg 53%

    29 August, Thursday

    Time Temperature Precipitation Wind Pressure Humidity
    00:00 +29°C° 0 mm 1 mps 745 mmHg 56%
    01:00 +29°C° 0 mm 1 mps 744 mmHg 58%
    02:00 +28°C° 0 mm 1 mps 744 mmHg 61%
    03:00 +26°C° 0 mm 0 mps 744 mmHg 64%
    04:00 +25°C° 0 mm 0 mps 744 mmHg 66%
    05:00 +28°C° 0 mm 1 mps 745 mmHg 66%
    06:00 +28°C° 0 mm 1 mps 745 mmHg 65%
    07:00 +29°C° 0 mm 1 mps 746 mmHg 64%
    08:00 +32°C° 0 mm 1 mps 746 mmHg 54%
    09:00 +35°C° 0 mm 1 mps 746 mmHg 44%
    10:00 +39°C° 0 mm 1 mps 746 mmHg 34%
    11:00 +40°C° 0 mm 1 mps 745 mmHg 31%
    12:00 +41°C° 0 mm 1 mps 744 mmHg 27%
    13:00 +43°C° 0 mm 1 mps 743 mmHg 24%
    14:00 +40°C° 0 mm 1 mps 743 mmHg 28%
    15:00 +37°C° 0 mm 1 mps 742 mmHg 33%
    16:00 +35°C° 0 mm 1 mps 742 mmHg 37%
    17:00 +34°C° 0 mm 1 mps 742 mmHg 42%
    18:00 +32°C° 0 mm 1 mps 743 mmHg 46%
    19:00 +28°C° 0 mm 0 mps 743 mmHg 51%
    20:00 +30°C° 0 mm 1 mps 743 mmHg 53%
    21:00 +29°C° 0 mm 1 mps 744 mmHg 55%
    22:00 +29°C° 0 mm 1 mps 744 mmHg 57%
    23:00 +29°C° 0 mm 1 mps 744 mmHg 59%
    Show more